User: anonymous   Login
Location: Curupao
(10.4996°N, 66.6442°W)
Time: 17:50:02
(UTC+00:00)
Language:

GENESIS II - Orbit

View from above orbital plane
View from above orbital plane
View from above satellite
View from above satellite

Ground track
Ground track

The orbit data is extracted from the following two-line orbital elements,

1 31789U 07028A   24204.91648979  .00026192  00000-0  68558-3 0  9995
2 31789  64.4897  91.1569 0018835 226.5065 133.4503 15.38487622942910
Epoch (UTC): 22 July 2024 21:59:44
Eccentricity: 0.0018835
inclination: 64.4897°
perigee height: 438 km
apogee height: 463 km
right ascension of ascending node: 91.1569°
argument of perigee: 226.5065°
revolutions per day: 15.38487622
mean anomaly at epoch: 133.4503°
orbit number at epoch: 94291

The dashed part of the orbit path shows where the satellite is in the earth's shadow,  

DLR